Location: Bukovany
(49.8234°N, 14.6297°E)
Time: 17:04:36
(UTC+00:00)

Cosmos 2026 Rocket - Pass Details

Date: 17 November 2025
Orbit: 938 x 1000 km, 82.9° (Epoch: 12 December)

Event Time Altitude Azimuth Distance (km) Brightness Sun altitude
Rises 17:49:36 0° 350° (N) 3,614 7.1 -24.6°
Reaches altitude 10° 17:52:05 10° 351° (N) 2,669 6.4 -25.0°
Maximum altitude 17:58:11 86° 80° (E) 957 3.8 -26.0°
Drops below altitude 10° 18:04:20 10° 171° (S) 2,681 6.2 -27.0°
Sets 18:06:50 0° 172° (S) 3,632 6.9 -27.4°
